Regional Weather Roundup
Issued by NWS

Home | Current Version | Previous Version | Graphics & Text | Print | Product List | Glossary Off
Versions: 1 2 3 4 5 6 7 8 9 10 11 12 13 14 15 16 17 18 19 20 21 22 23 24 25 26 27 28 29 30 31 32 33 34 35 36 37 38 39 40 41 42 43 44 45 46 47 48 49 50

000
ASUS43 KMKX 230611
RWRWI

WISCONSIN REGIONAL WEATHER ROUNDUP
NATIONAL WEATHER SERVICE MILWAUKEE/SULLIVAN WI
100 AM CDT WED MAY 23 2018

NOTE: "FAIR" INDICATES FEW OR NO CLOUDS BELOW 12,000 FEET WITH NO
SIGNIFICANT WEATHER AND/OR OBSTRUCTIONS TO VISIBILITY.

WIZ001-002-006>008-014>016-023>028-230700-
NORTHWEST WISCONSIN

CITY           SKY/WX    TMP DP  RH WIND       PRES   REMARKS
SUPERIOR ARPT  FAIR      56  53  91 SW3       30.06S
6HR MIN TEMP:  54; 6HR MAX TEMP:  77;

ASHLAND        FAIR      57  54  89 SW7       30.07R
6HR MIN TEMP:  56; 6HR MAX TEMP:  76;

HAYWARD        FAIR      51  48  89 CALM      30.10R
6HR MIN TEMP:  50; 6HR MAX TEMP:  75;

SIREN          FAIR      52  50  93 CALM      30.08S
6HR MIN TEMP:  51; 6HR MAX TEMP:  72;

CUMBERLAND     FOG       52  52 100 CALM      30.10S VSB 1/2
RICE LAKE      FAIR      55  54  97 CALM      30.11S FOG
6HR MIN TEMP:  53; 6HR MAX TEMP:  71;

CHETEK           N/A     53  53 100 CALM      30.10S FOG
6HR MIN TEMP:  52; 6HR MAX TEMP:  70;

LADYSMITH      FAIR      54  51  92 CALM      30.12S
6HR MIN TEMP:  53; 6HR MAX TEMP:  73;

EAU CLAIRE     FAIR      53  52  96 CALM      30.09R FOG
6HR MIN TEMP:  51; 6HR MAX TEMP:  69;

MENOMONIE      FAIR      56  55  95 CALM      30.10R FOG
6HR MIN TEMP:  56; 6HR MAX TEMP:  72;

NEW RICHMOND   FAIR      58  55  90 SE3       30.09S
6HR MIN TEMP:  57; 6HR MAX TEMP:  73;

OSCEOLA        FAIR      54  53  95 CALM      30.11S
6HR MIN TEMP:  53; 6HR MAX TEMP:  73;

$$

WIZ003>005-009-010-017-018-230700-
NORTH CENTRAL WISCONSIN

CITY           SKY/WX    TMP DP  RH WIND       PRES   REMARKS
MANITOWISH WTR FAIR      50  50 100 CALM      30.10R
6HR MIN TEMP:  49; 6HR MAX TEMP:  72;

ARBOR VITAE    FAIR      57  55  92 CALM      30.10R
6HR MIN TEMP:  57; 6HR MAX TEMP:  76;

WOODRUFF       FAIR      57  55  92 CALM      30.10R
6HR MIN TEMP:  57; 6HR MAX TEMP:  76;

RHINELANDER    FAIR      53  51  93 CALM      30.10R
6HR MIN TEMP:  53; 6HR MAX TEMP:  76;

EAGLE RIVER    FAIR      51  50  98 CALM      30.09R
6HR MIN TEMP:  49; 6HR MAX TEMP:  75;

LAND O LAKES   FAIR      47  45  94 CALM      30.11R
6HR MIN TEMP:  47; 6HR MAX TEMP:  76;

PHILLIPS       FOG       51  51 100 CALM      30.10R VSB 1
6HR MIN TEMP:  51; 6HR MAX TEMP:  70;

TOMAHAWK       FAIR      52  51  96 CALM      30.11R
6HR MIN TEMP:  52; 6HR MAX TEMP:  70;

MEDFORD        FAIR      55  54  95 W3        30.10S
6HR MIN TEMP:  53; 6HR MAX TEMP:  70;

MERRILL        FAIR      51  51 100 CALM      30.10S
6HR MIN TEMP:  51; 6HR MAX TEMP:  71;

$$

WIZ029-030-035-036-043>047-230700-
CENTRAL WISCONSIN

CITY           SKY/WX    TMP DP  RH WIND       PRES   REMARKS
WAUSAU         FAIR      58  57  97 CALM      30.08R
6HR MIN TEMP:  57; 6HR MAX TEMP:  71;

MOSINEE        FAIR      54  54 100 CALM      30.11S
MARSHFIELD     FAIR      53  53 100 CALM      30.10R FOG
6HR MIN TEMP:  52; 6HR MAX TEMP:  68;

STEVENS POINT  FAIR      55  55 100 SW3       30.11R
6HR MIN TEMP:  55; 6HR MAX TEMP:  69;

WAUPACA        FAIR      59  58  96 SW3       30.10S
6HR MIN TEMP:  59; 6HR MAX TEMP:  74;

WAUTOMA        FAIR      55  54  96 SW3       30.10S
6HR MIN TEMP:  54; 6HR MAX TEMP:  71;

WISC RAPIDS    FOG       53  53 100 CALM      30.11R VSB 1/4
6HR MIN TEMP:  52; 6HR MAX TEMP:  70;

CAMP DOUGLAS   FAIR      50  50 100 CALM      30.10S FOG
6HR MIN TEMP:  49; 6HR MAX TEMP:  64;

$$

WIZ011>013-019>022-031-037>040-048>050-230700-
NORTHEAST WISCONSIN

CITY           SKY/WX    TMP DP  RH WIND       PRES   REMARKS
ANTIGO         FAIR      56  55  97 NW3       30.10S
6HR MIN TEMP:  55; 6HR MAX TEMP:  72;

SHAWANO        FAIR      63  58  83 SW5       30.07S
6HR MIN TEMP:  63; 6HR MAX TEMP:  76;

OCONTO         FAIR      60  56  87 CALM      30.04S
6HR MIN TEMP:  59; 6HR MAX TEMP:  70;

STURGEON BAY   FAIR      59  55  87 S6        30.06S
6HR MIN TEMP:  59; 6HR MAX TEMP:  70;

GREEN BAY      FAIR      62  57  83 SW6       30.07R
6HR MIN TEMP:  62; 6HR MAX TEMP:  72;

MANITOWOC      FAIR      52  49  89 CALM      30.08S
6HR MIN TEMP:  49; 6HR MAX TEMP:  54;

APPLETON       FAIR      59  55  88 W9        30.07S
CLINTONVILLE   FAIR      60  56  87 SW3       30.08R
6HR MIN TEMP:  60; 6HR MAX TEMP:  74;

OSHKOSH        FAIR      59  57  93 W3        30.09R
6HR MIN TEMP:  59; 6HR MAX TEMP:  70;

$$

WIZ032>034-041-042-053>061-230700-
SOUTHWEST WISCONSIN

CITY           SKY/WX    TMP DP  RH WIND       PRES   REMARKS
LA CROSSE      FAIR      57  56  96 SE6       30.09S
6HR MIN TEMP:  57; 6HR MAX TEMP:  69;

SPARTA         FAIR      48  48 100 CALM      30.11S
6HR MIN TEMP:  48; 6HR MAX TEMP:  63;

VIROQUA        FAIR      57  57 100 SE5       30.11S
6HR MIN TEMP:  56; 6HR MAX TEMP:  64;

BOSCOBEL       FOG       55  55 100 CALM      30.11R VSB 1/2
6HR MIN TEMP:  55; 6HR MAX TEMP:  68;

PRAIRIE DU CHI FAIR      58  57  95 CALM      30.10S
6HR MIN TEMP:  58; 6HR MAX TEMP:  72;

PLATTEVILLE    FAIR      58  58 100 E7        30.12R
6HR MIN TEMP:  58; 6HR MAX TEMP:  69;

$$

WIZ056-057-062-063-064-067-068-230700-
SOUTH CENTRAL WISCONSIN

CITY           SKY/WX    TMP DP  RH WIND       PRES   REMARKS
REEDSBURG      FAIR      54  54 100 CALM      30.09F
6HR MIN TEMP:  54; 6HR MAX TEMP:  65;

BARABOO/DELLS  FAIR      55  54  96 CALM      30.10S FOG
6HR MIN TEMP:  54; 6HR MAX TEMP:  65;

LONE ROCK      FAIR      56  56 100 CALM      30.10S FOG
6HR MIN TEMP:  55; 6HR MAX TEMP:  67;

MINERAL POINT  FAIR      59  59 100 E3        30.11S
MADISON        FAIR      54  54 100 CALM      30.10R FOG
6HR MIN TEMP:  54; 6HR MAX TEMP:  68;

MIDDLETON      FAIR      55  55 100 CALM      30.10S
6HR MIN TEMP:  55; 6HR MAX TEMP:  68;

WATERTOWN      FAIR      53  53 100 CALM      30.09S
6HR MIN TEMP:  51; 6HR MAX TEMP:  66;

MONROE         FAIR      59  55  88 CALM      30.11R
JANESVILLE     FOG       55  55 100 CALM      30.10S VSB 1/2
$$

WIZ051-052-058>065-066-070>072-230700-
SOUTHEAST WISCONSIN

CITY           SKY/WX    TMP DP  RH WIND       PRES   REMARKS
MILWAUKEE      FAIR      56  53  90 W3        30.09S
6HR MIN TEMP:  55; 6HR MAX TEMP:  60;

WAUKESHA       FAIR      50  50 100 CALM      30.11R FOG
MILWAUKEE/TIMM FAIR      52  50  93 CALM      30.10S
RACINE         FAIR      49  47  93 CALM      30.11R
6HR MIN TEMP:  47; 6HR MAX TEMP:  58;

BURLINGTON     FAIR      52  51  98 CALM      30.10S FOG
6HR MIN TEMP:  52; 6HR MAX TEMP:  66;

KENOSHA        FOG       50  49  96 CALM      30.10R VSB 1/4
6HR MIN TEMP:  50; 6HR MAX TEMP:  58;

FOND DU LAC    FAIR      56  54  93 CALM      30.10R
6HR MIN TEMP:  56; 6HR MAX TEMP:  68;

SHEBOYGAN      FAIR      56  54  93 SW6       30.09R
6HR MIN TEMP:  54; 6HR MAX TEMP:  65; 6HR PCP: TRACE;

WEST BEND      FAIR      54  54 100 CALM      30.09S
JUNEAU         FOG       55  54  99 CALM      30.11S VSB 1/2
6HR MIN TEMP:  55; 6HR MAX TEMP:  66;

$$

LSZ147-162-230700-
LAKE SUPERIOR

STATION/POSITION TIME  TEMP    WIND        PRES    WAVE
                       AIR SEA DIR/SP/G            HT/PER
                 (UTC) (F)     (DEG/KT/KT) (MB)    (FT/S)
W MID LAKE BUOY  0550   43 36  200/  6/  8 1017.3R   0
DEVILS ISLAND    0600   64     230/ 10/ 11 1017.6R
SAXON HARBOR     0540   57     200/  4/  6 1017.3R
$$

LMZ867-665-643>646-230700-
LAKE MICHIGAN



USA.gov is the U.S. government's official web portal to all federal, state and local government web resources and services.